DW6016 Weather Reports


Display with metric or nautical units.
time (UTC)temp
F
wind
direction
speed
MPH
gust
MPH
rain 1hr
in
rain 24hr
in
rain mn
in
humidity
%
barometer
mb
20260906113738 58 313 0.0 0.0 0.00 0.00 0.00 92 1016.3
20260906113237 58 318 0.0 0.0 0.00 0.00 0.00 92 1016.3
20260906112737 58 319 0.0 0.0 0.00 0.00 0.00 92 1016.3
20260906112233 59 319 0.0 0.0 0.00 0.00 0.00 92 1016.3
20260906111733 58 327 1.0 1.0 0.00 0.00 0.00 92 1016.4
20260906111227 58 330 0.0 1.0 0.00 0.00 0.00 93 1016.3
20260906110722 58 329 0.0 0.0 0.00 0.00 0.00 93 1016.3
20260906110218 58 330 0.0 0.0 0.00 0.00 0.00 93 1016.0
20260906105717 58 316 0.0 0.0 0.00 0.00 0.00 93 1016.1
20260906105214 58 316 0.0 0.0 0.00 0.00 0.00 93 1016.0
20260906104713 58 321 0.0 0.0 0.00 0.00 0.00 93 1016.2
20260906104212 58 321 0.0 0.0 0.00 0.00 0.00 93 1016.0
20260906103710 58 321 0.0 0.0 0.00 0.00 0.00 92 1016.1
20260906103205 59 321 0.0 0.0 0.00 0.00 0.00 92 1016.1
20260906102701 59 321 0.0 0.0 0.00 0.00 0.00 92 1016.2
20260906102159 59 321 0.0 0.0 0.00 0.00 0.00 92 1016.1
20260906101654 59 317 0.0 0.0 0.00 0.00 0.00 92 1016.2
20260906101149 59 313 0.0 1.0 0.00 0.00 0.00 92 1016.3
20260906100644 59 320 0.0 1.0 0.00 0.00 0.00 92 1016.2
20260906100139 59 316 0.0 0.0 0.00 0.00 0.00 92 1016.2
20260906095634 59 306 0.0 0.0 0.00 0.00 0.00 92 1016.2
20260906095129 59 309 0.0 0.0 0.00 0.00 0.00 92 1016.0
20260906094628 59 314 0.0 0.0 0.00 0.00 0.00 91 1015.9
20260906094124 59 330 1.0 1.0 0.00 0.00 0.00 91 1016.0
20260906093620 59 303 0.0 0.0 0.00 0.00 0.00 91 1016.1
20260906093114 59 309 0.0 0.0 0.00 0.00 0.00 91 1016.1
20260906092609 59 310 0.0 0.0 0.00 0.00 0.00 91 1015.9
20260906092104 59 312 0.0 0.0 0.00 0.00 0.00 92 1016.3
20260906091601 59 305 0.0 0.0 0.00 0.00 0.00 92 1016.1
20260906091057 59 314 0.0 0.0 0.00 0.00 0.00 92 1016.1
20260906090557 59 302 1.0 1.0 0.00 0.00 0.00 92 1015.9
20260906090057 59 304 0.0 0.0 0.00 0.00 0.00 92 1015.9
20260906085556 59 304 0.0 1.0 0.00 0.00 0.00 92 1016.1
20260906085050 59 304 0.0 1.0 0.00 0.00 0.00 91 1015.9
20260906084545 59 303 1.0 1.0 0.00 0.00 0.00 91 1016.3
20260906084044 60 302 0.0 0.0 0.00 0.00 0.00 90 1016.1
20260906083540 60 299 0.0 1.0 0.00 0.00 0.00 90 1016.1
20260906083039 60 327 0.0 1.0 0.00 0.00 0.00 90 1016.0
20260906082535 60 332 0.0 0.0 0.00 0.00 0.00 89 1016.0
20260906082030 60 330 0.0 1.0 0.00 0.00 0.00 89 1016.1
20260906081526 60 312 0.0 1.0 0.00 0.00 0.00 90 1016.1
20260906081021 60 316 0.0 0.0 0.00 0.00 0.00 89 1016.0
20260906080518 60 308 0.0 0.0 0.00 0.00 0.00 89 1016.0
20260906080014 60 307 0.0 0.0 0.00 0.00 0.00 88 1016.0
20260906075507 60 305 0.0 0.0 0.00 0.00 0.00 88 1016.1
20260906075002 60 299 0.0 0.0 0.00 0.00 0.00 88 1016.1
20260906074457 60 299 1.0 1.0 0.00 0.00 0.00 88 1016.2
20260906073955 60 314 0.0 0.0 0.00 0.00 0.00 88 1016.1
20260906073450 60 316 0.0 0.0 0.00 0.00 0.00 88 1016.2
20260906072946 60 316 0.0 0.0 0.00 0.00 0.00 88 1016.0
20260906072441 60 316 0.0 0.0 0.00 0.00 0.00 88 1016.1
20260906071938 60 320 0.0 0.0 0.00 0.00 0.00 88 1016.1
20260906071433 60 305 0.0 0.0 0.00 0.00 0.00 88 1016.1
20260906070929 60 309 0.0 0.0 0.00 0.00 0.00 87 1016.2
20260906070425 60 317 0.0 0.0 0.00 0.00 0.00 87 1016.2
20260906065921 60 317 0.0 0.0 0.00 0.00 0.00 87 1016.1
20260906065420 60 316 0.0 0.0 0.00 0.00 0.00 87 1016.2
20260906064916 60 315 0.0 0.0 0.00 0.00 0.00 87 1016.3
20260906064412 60 315 0.0 0.0 0.00 0.00 0.00 86 1016.2
20260906063907 60 309 0.0 0.0 0.00 0.00 0.00 86 1016.3
20260906063402 60 308 0.0 0.0 0.00 0.00 0.00 86 1016.1
20260906062857 60 310 0.0 0.0 0.00 0.00 0.00 86 1016.4
20260906062356 60 308 0.0 0.0 0.00 0.00 0.00 86 1016.1
20260906061852 60 308 0.0 0.0 0.00 0.00 0.00 86 1016.2
20260906061348 60 308 0.0 0.0 0.00 0.00 0.00 86 1016.2
20260906060842 61 308 0.0 0.0 0.00 0.00 0.00 85 1016.0
20260906060340 61 310 0.0 0.0 0.00 0.00 0.00 85 1016.2
20260906055836 61 314 0.0 0.0 0.00 0.00 0.00 85 1016.4
20260906055331 61 316 0.0 0.0 0.00 0.00 0.00 84 1016.6
20260906054826 61 318 1.0 1.0 0.00 0.00 0.00 84 1016.4
20260906054321 60 7 1.0 1.0 0.00 0.00 0.00 85 1016.4
20260906053818 60 301 0.0 0.0 0.00 0.00 0.00 87 1016.3
20260906053313 59 309 0.0 0.0 0.00 0.00 0.00 87 1016.3
20260906052809 59 306 0.0 0.0 0.00 0.00 0.00 87 1016.4
20260906052306 59 309 0.0 0.0 0.00 0.00 0.00 88 1016.4
20260906051802 58 310 0.0 0.0 0.00 0.00 0.00 88 1016.5
20260906051301 58 310 0.0 0.0 0.00 0.00 0.00 88 1016.4
20260906050756 58 307 0.0 0.0 0.00 0.00 0.00 88 1016.4
20260906050252 58 307 0.0 0.0 0.00 0.00 0.00 88 1016.4
20260906045750 58 307 0.0 0.0 0.00 0.00 0.00 88 1016.4
20260906045245 58 307 0.0 0.0 0.00 0.00 0.00 88 1016.2
20260906044741 58 307 0.0 0.0 0.00 0.00 0.00 88 1016.6
20260906044236 58 307 0.0 0.0 0.00 0.00 0.00 88 1016.7
20260906043732 58 307 0.0 0.0 0.00 0.00 0.00 88 1016.4
20260906043228 58 307 0.0 0.0 0.00 0.00 0.00 88 1016.6
20260906042727 58 307 0.0 0.0 0.00 0.00 0.00 87 1016.7
20260906042226 58 307 0.0 0.0 0.00 0.00 0.00 87 1016.6
20260906041722 58 307 0.0 0.0 0.00 0.00 0.00 86 1016.5
20260906041217 59 307 0.0 0.0 0.00 0.00 0.00 86 1016.6
20260906040713 59 307 0.0 0.0 0.00 0.00 0.00 85 1016.6
20260906040208 59 307 0.0 0.0 0.00 0.00 0.00 84 1016.6
20260906035703 59 307 0.0 0.0 0.00 0.00 0.00 84 1016.6
20260906035159 60 307 0.0 0.0 0.00 0.00 0.00 84 1016.8
20260906034653 60 307 0.0 0.0 0.00 0.00 0.00 84 1016.4
20260906034148 59 307 0.0 0.0 0.00 0.00 0.00 84 1016.5
20260906033644 59 307 0.0 0.0 0.00 0.00 0.00 82 1016.2
20260906033143 60 307 0.0 0.0 0.00 0.00 0.00 81 1016.1
20260906032640 60 307 0.0 0.0 0.00 0.00 0.00 80 1016.2
20260906032140 61 307 0.0 0.0 0.00 0.00 0.00 80 1016.1
20260906031635 61 307 0.0 0.0 0.00 0.00 0.00 79 1016.0
20260906031131 61 307 0.0 0.0 0.00 0.00 0.00 77 1016.1
20260906030630 62 307 0.0 0.0 0.00 0.00 0.00 77 1015.9
20260906030126 62 307 0.0 0.0 0.00 0.00 0.00 76 1016.2
20260906025625 62 307 0.0 0.0 0.00 0.00 0.00 74 1016.0
20260906025124 63 307 0.0 0.0 0.00 0.00 0.00 74 1016.1
20260906024619 63 307 0.0 0.0 0.00 0.00 0.00 72 1015.9
20260906024113 64 307 0.0 0.0 0.00 0.00 0.00 73 1016.1
20260906023609 64 307 0.0 0.0 0.00 0.00 0.00 72 1016.0
20260906023103 64 308 0.0 0.0 0.00 0.00 0.00 70 1016.0
20260906022559 65 308 0.0 0.0 0.00 0.00 0.00 69 1015.9
20260906022054 65 307 0.0 0.0 0.00 0.00 0.00 68 1016.1
20260906021550 66 307 0.0 1.0 0.00 0.00 0.00 67 1016.0
20260906021049 66 307 0.0 0.0 0.00 0.00 0.00 66 1016.2
20260906020549 66 310 0.0 0.0 0.00 0.00 0.00 66 1016.2
20260906020048 66 311 0.0 0.0 0.00 0.00 0.00 67 1016.0
20260906015548 67 310 0.0 0.0 0.00 0.00 0.00 66 1016.1
20260906015047 68 310 0.0 0.0 0.00 0.00 0.00 63 1016.0
20260906014542 69 310 0.0 1.0 0.00 0.00 0.00 62 1016.0
20260906014038 69 315 0.0 0.0 0.00 0.00 0.00 60 1016.1
20260906013533 69 308 1.0 1.0 0.00 0.00 0.00 59 1016.2
20260906013029 70 345 0.0 1.0 0.00 0.00 0.00 57 1016.1
20260906012524 70 311 0.0 0.0 0.00 0.00 0.00 57 1016.0
20260906012023 71 321 0.0 1.0 0.00 0.00 0.00 58 1016.3
20260906011519 71 105 2.0 2.0 0.00 0.00 0.00 56 1016.0
20260906011019 71 309 0.0 0.0 0.00 0.00 0.00 56 1016.0
20260906010514 71 333 1.0 1.0 0.00 0.00 0.00 55 1015.9
20260906010011 71 318 1.0 1.0 0.00 0.00 0.00 56 1016.0
20260906005510 71 295 0.0 0.0 0.00 0.00 0.00 56 1015.9
20260906005009 71 296 0.0 0.0 0.00 0.00 0.00 55 1016.2
20260906004503 71 301 0.0 0.0 0.00 0.00 0.00 57 1016.1
20260906003958 71 313 3.0 3.0 0.00 0.00 0.00 55 1016.1
20260906003453 71 310 0.0 0.0 0.00 0.00 0.00 55 1016.3
20260906002948 71 334 0.0 0.0 0.00 0.00 0.00 54 1016.2
20260906002443 71 326 0.0 0.0 0.00 0.00 0.00 54 1016.3
20260906001938 71 96 3.0 3.0 0.00 0.00 0.00 53 1016.0
20260906001434 71 67 2.0 3.0 0.00 0.00 0.00 53 1015.9
20260906000928 71 297 1.0 1.0 0.00 0.00 0.00 54 1016.3
20260906000425 71 298 0.0 1.0 0.00 0.00 0.00 54 1016.1
20260905235913 71 317 1.0 1.0 0.00 0.00 0.00 56 1016.2
20260905235413 71 61 2.0 3.0 0.00 0.00 0.00 55 1016.2
20260905234908 71 300 0.0 0.0 0.00 0.00 0.00 56 1016.2
20260905234403 71 65 1.0 1.0 0.00 0.00 0.00 56 1016.1
20260905233858 70 276 0.0 1.0 0.00 0.00 0.00 56 1016.1
20260905233353 70 309 3.0 3.0 0.00 0.00 0.00 57 1016.2
20260905232852 70 342 0.0 0.0 0.00 0.00 0.00 57 1016.3
20260905232349 70 307 2.0 2.0 0.00 0.00 0.00 56 1016.1
20260905231844 70 48 1.0 1.0 0.00 0.00 0.00 58 1016.4
20260905231338 70 84 2.0 3.0 0.00 0.00 0.00 58 1016.4
20260905230836 70 317 1.0 2.0 0.00 0.00 0.00 60 1016.3
20260905230333 69 310 1.0 1.0 0.00 0.00 0.00 59 1016.3
20260905225832 70 302 3.0 3.0 0.00 0.00 0.00 59 1016.4
20260905225327 69 300 1.0 1.0 0.00 0.00 0.00 60 1016.5
20260905224822 69 304 3.0 3.0 0.00 0.00 0.00 60 1016.7
20260905224318 69 304 0.0 0.0 0.00 0.00 0.00 61 1016.6
20260905223812 70 316 2.0 2.0 0.00 0.00 0.00 59 1016.6
20260905223310 70 282 1.0 1.0 0.00 0.00 0.00 57 1016.6
20260905222805 69 304 0.0 0.0 0.00 0.00 0.00 62 1016.6
20260905222306 70 310 3.0 3.0 0.00 0.00 0.00 57 1016.7
20260905221800 70 322 3.0 5.0 0.00 0.00 0.00 58 1016.7
20260905221256 69 99 1.0 1.0 0.00 0.00 0.00 61 1016.7
20260905220752 69 317 1.0 1.0 0.00 0.00 0.00 60 1016.8
20260905220248 69 309 0.0 0.0 0.00 0.00 0.00 61 1016.9
20260905215747 69 304 2.0 2.0 0.00 0.00 0.00 60 1016.8
20260905215243 70 308 1.0 1.0 0.00 0.00 0.00 58 1016.9
20260905214739 71 297 2.0 2.0 0.00 0.00 0.00 58 1016.8
20260905214235 71 311 0.0 0.0 0.00 0.00 0.00 58 1016.8
20260905213730 72 305 0.0 1.0 0.00 0.00 0.00 60 1016.9
20260905213226 71 341 0.0 1.0 0.00 0.00 0.00 60 1017.0
20260905212721 71 312 1.0 1.0 0.00 0.00 0.00 58 1017.0
20260905212219 71 312 1.0 1.0 0.00 0.00 0.00 59 1016.9
20260905211714 70 311 0.0 0.0 0.00 0.00 0.00 60 1016.9
20260905211209 69 303 1.0 2.0 0.00 0.00 0.00 62 1017.0
20260905210706 69 307 1.0 1.0 0.00 0.00 0.00 62 1017.0
20260905210206 70 319 2.0 2.0 0.00 0.00 0.00 61 1017.0
20260905205705 71 300 0.0 1.0 0.00 0.00 0.00 59 1017.0
20260905205205 72 222 2.0 2.0 0.00 0.00 0.00 58 1017.2
20260905204705 72 336 1.0 1.0 0.00 0.00 0.00 56 1017.1
20260905204200 70 314 1.0 1.0 0.00 0.00 0.00 61 1017.2
20260905203654 69 320 0.0 0.0 0.00 0.00 0.00 61 1017.2
20260905203150 69 315 0.0 0.0 0.00 0.00 0.00 63 1017.2
20260905202645 68 303 2.0 3.0 0.00 0.00 0.00 63 1017.4
20260905202140 69 297 1.0 1.0 0.00 0.00 0.00 65 1017.4
20260905201635 68 320 0.0 1.0 0.00 0.00 0.00 65 1017.2
20260905201130 69 297 1.0 2.0 0.00 0.00 0.00 63 1017.4
20260905200626 69 307 0.0 0.0 0.00 0.00 0.00 64 1017.3
20260905200121 68 313 0.0 1.0 0.00 0.00 0.00 65 1017.5
20260905195619 67 311 3.0 3.0 0.00 0.00 0.00 65 1017.3
20260905195115 67 304 1.0 1.0 0.00 0.00 0.00 67 1017.5
20260905194615 67 309 2.0 2.0 0.00 0.00 0.00 67 1017.4
20260905194114 67 308 0.0 0.0 0.00 0.00 0.00 67 1017.4
20260905193609 68 129 3.0 3.0 0.00 0.00 0.00 67 1017.5
20260905193104 67 309 0.0 1.0 0.00 0.00 0.00 68 1017.7
20260905192600 68 271 1.0 1.0 0.00 0.00 0.00 68 1017.6
20260905192055 68 285 1.0 1.0 0.00 0.00 0.00 68 1017.8
20260905191553 68 289 2.0 2.0 0.00 0.00 0.00 68 1017.8
20260905191048 68 49 1.0 2.0 0.00 0.00 0.00 67 1017.6
20260905190546 66 306 1.0 1.0 0.00 0.00 0.00 71 1017.9
20260905190045 66 304 0.0 1.0 0.00 0.00 0.00 71 1017.8
20260905185545 67 146 3.0 3.0 0.00 0.00 0.00 69 1017.9
20260905185044 65 318 1.0 1.0 0.00 0.00 0.00 75 1017.8
20260905184539 66 300 1.0 1.0 0.00 0.00 0.00 70 1017.8
20260905184038 67 304 1.0 1.0 0.00 0.00 0.00 71 1018.0
20260905183538 68 96 3.0 3.0 0.00 0.00 0.00 68 1018.2
20260905183033 68 302 0.0 0.0 0.00 0.00 0.00 70 1018.3
20260905182532 67 284 0.0 1.0 0.00 0.00 0.00 72 1018.0
20260905182027 66 318 1.0 2.0 0.00 0.00 0.00 72 1018.1
20260905181522 66 317 0.0 1.0 0.00 0.00 0.00 73 1018.3
20260905181021 65 296 0.0 0.0 0.00 0.00 0.00 77 1018.1
20260905180516 64 318 3.0 3.0 0.00 0.00 0.00 75 1018.0
20260905180012 65 296 1.0 1.0 0.00 0.00 0.00 75 1018.4
20260905175510 63 310 0.0 1.0 0.00 0.00 0.00 79 1018.3
20260905175006 62 315 0.0 0.0 0.00 0.00 0.00 80 1018.3
20260905174502 63 347 1.0 1.0 0.00 0.00 0.00 78 1018.2
20260905173957 64 301 1.0 1.0 0.00 0.00 0.00 77 1018.2
20260905173453 64 64 2.0 2.0 0.00 0.00 0.00 76 1018.2
20260905172949 63 303 0.0 1.0 0.00 0.00 0.00 80 1018.3
20260905172447 62 305 2.0 2.0 0.00 0.00 0.00 81 1018.3
20260905171942 62 305 0.0 1.0 0.00 0.00 0.00 85 1018.4
20260905171439 60 305 0.0 0.0 0.00 0.00 0.00 85 1018.2
20260905170935 60 303 1.0 1.0 0.00 0.00 0.00 87 1018.2
20260905170431 60 312 1.0 1.0 0.00 0.00 0.00 88 1018.3
20260905165930 60 313 1.0 1.0 0.00 0.00 0.00 87 1018.4
20260905165425 59 311 1.0 2.0 0.00 0.00 0.00 89 1018.5
20260905164921 59 286 1.0 1.0 0.00 0.00 0.00 91 1018.3
20260905164420 59 306 2.0 2.0 0.00 0.00 0.00 92 1018.5
20260905163915 58 312 0.0 1.0 0.00 0.00 0.00 95 1018.2
20260905163412 58 310 2.0 2.0 0.00 0.00 0.00 98 1018.4
20260905162908 57 293 1.0 1.0 0.00 0.00 0.00 99 1018.4
20260905162402 57 308 0.0 0.0 0.00 0.00 0.00 99 1018.5
20260905161857 58 302 1.0 1.0 0.00 0.00 0.00 99 1018.3
20260905161356 58 307 1.0 1.0 0.00 0.00 0.00 99 1018.4
20260905160854 57 304 0.0 0.0 0.00 0.00 0.00 99 1018.7
20260905160349 57 310 1.0 1.0 0.00 0.00 0.00 99 1018.3
20260905155843 57 329 0.0 0.0 0.00 0.00 0.00 99 1018.5
20260905155337 56 329 0.0 0.0 0.00 0.00 0.00 99 1018.4
20260905154836 56 329 0.0 0.0 0.00 0.00 0.00 99 1018.4
20260905154332 56 328 0.0 0.0 0.00 0.00 0.00 99 1018.6
20260905153827 56 328 1.0 1.0 0.00 0.00 0.00 99 1018.4
20260905153324 56 330 0.0 0.0 0.00 0.00 0.00 99 1018.6
20260905152824 57 330 0.0 0.0 0.00 0.00 0.00 99 1018.4
20260905152322 56 330 0.0 0.0 0.00 0.00 0.00 99 1018.4
20260905151818 55 330 0.0 0.0 0.00 0.00 0.00 99 1018.6
20260905151314 55 330 0.0 0.0 0.00 0.00 0.00 99 1018.4
20260905150813 55 330 0.0 0.0 0.00 0.00 0.00 99 1018.4
20260905150308 55 330 0.0 0.0 0.00 0.00 0.00 99 1018.6
20260905145805 55 330 0.0 0.0 0.00 0.00 0.00 99 1018.4
20260905145259 55 330 0.0 0.0 0.00 0.00 0.00 99 1018.5
20260905144758 54 330 0.0 0.0 0.00 0.00 0.00 99 1018.3
20260905144254 54 330 0.0 0.0 0.00 0.00 0.00 99 1018.4
20260905143752 54 330 0.0 0.0 0.00 0.00 0.00 99 1018.3
20260905143247 53 330 0.0 0.0 0.00 0.00 0.00 99 1018.4
20260905142745 53 330 0.0 0.0 0.00 0.00 0.00 99 1018.4
20260905142240 53 330 0.0 0.0 0.00 0.00 0.00 99 1018.5
20260905141736 53 330 0.0 0.0 0.00 0.00 0.00 99 1018.4
20260905141231 53 330 0.0 0.0 0.00 0.00 0.00 99 1018.3
20260905140721 53 330 0.0 0.0 0.00 0.00 0.00 99 1018.4
20260905140220 53 330 0.0 0.0 0.00 0.00 0.00 99 1018.1
20260905135715 52 330 1.0 1.0 0.00 0.00 0.00 99 1018.2
20260905135211 52 330 0.0 0.0 0.00 0.00 0.00 99 1018.2
20260905134710 52 330 0.0 0.0 0.00 0.00 0.00 99 1018.3
20260905134210 52 330 0.0 0.0 0.00 0.00 0.00 99 1018.2
20260905133705 52 330 0.0 0.0 0.00 0.00 0.00 99 1018.2
20260905133200 52 330 0.0 0.0 0.00 0.00 0.00 99 1018.0
20260905132659 53 330 0.0 0.0 0.00 0.00 0.00 99 1018.2
20260905132154 53 330 0.0 0.0 0.00 0.00 0.00 99 1018.0
20260905131649 53 330 0.0 0.0 0.00 0.00 0.00 99 1018.0
20260905131144 53 330 0.0 0.0 0.00 0.00 0.00 99 1018.1
20260905130639 53 330 0.0 0.0 0.00 0.00 0.00 99 1017.9
20260905130138 54 330 0.0 0.0 0.00 0.00 0.00 99 1017.9
20260905125632 54 330 0.0 1.0 0.00 0.00 0.00 99 1017.9
20260905125128 53 330 0.0 0.0 0.00 0.00 0.00 99 1017.7
20260905124625 53 330 0.0 0.0 0.00 0.00 0.00 99 1017.6
20260905124121 53 330 0.0 0.0 0.00 0.00 0.00 99 1017.7
20260905123615 53 330 0.0 0.0 0.00 0.00 0.00 99 1017.9
20260905123113 53 330 0.0 0.0 0.00 0.00 0.00 99 1017.8
20260905122607 53 330 0.0 0.0 0.00 0.00 0.00 99 1017.9
20260905122107 54 330 0.0 0.0 0.00 0.00 0.00 99 1017.9
20260905121601 54 330 0.0 0.0 0.00 0.00 0.00 99 1017.7
20260905121057 54 330 0.0 0.0 0.00 0.00 0.00 99 1017.7
20260905120556 54 330 0.0 0.0 0.00 0.00 0.00 99 1017.6
20260905120051 54 330 0.0 0.0 0.00 0.00 0.00 99 1017.6
20260905115550 54 330 0.0 0.0 0.00 0.00 0.00 99 1017.9
20260905115045 54 330 0.0 0.0 0.00 0.00 0.00 99 1017.8
20260905114544 54 330 0.0 0.0 0.00 0.00 0.00 99 1017.7
20260905114043 54 330 0.0 0.0 0.00 0.00 0.00 99 1017.7